Карточка аэропорта UWUU

Внимание!
Информация на этой странице в стадии наполнения.
Если вы не увидели какой-то информации, или заметили неточность - пожалуйста сообщите нам!
Спасибо!
Команда RU-STAFF
Название аэропортаУфа
Название аэропорта (англ.)Ufa
Превышение450 ft. (137.2 m.)
Координаты54°33.6', 55°52.2'
Высота перехода5000 ft
Эшелон переходаFL070
Коды ответчика6730-6731
Зона ОрВДСамара РПИ (UWWW)
Данные METARUWUU 150830Z 03005MPS 340V070 9999 SCT040 25/15 Q1011 R32L/0///60 NOSIG
Проноз погоды (TAF)UWUU 150747Z 1509/1609 05005G10MPS 9999 SCT040 TX27/1511Z TN16/1601Z TEMPO 1509/1609 01003G08MPS BKN030
NOTAMshow/hide NOTAM
AWOS   TABLE

Информация о ВПП

ВПП Длина ВПП (м.) Покрытие Курс ВПП Частота ILS
14R3761Бетон138110.3
32L3761Бетон318108.7

Диспетчерские позиции

Позывной Наименование органа УВД Частота
UWUU_GNDУфа-Руление119.000
UWUU_R_APPУфа-Круг120.900
UWUU_APPУфа-Подход126.000
UWUU_TWRУфа-Вышка131.000



Спутниковое изображение